Location: Fleury
(48.6356°N, 2.9719°E)
Time: 19:31:16
(UTC+00:00)

Daily predictions for brighter satellites

Satellite Brightness Start Highest point End
(mag) Time Altitude Azimuth Time Altitude Azimuth Time Altitude Azimuth
Cosmos 2016 Rocket 4.1 16:25:25 10° S 16:31:42 74° E 16:38:04 10° NNE
CBERS-1 4.0 16:29:05 10° SSE 16:34:12 80° ENE 16:39:20 10° NNW
Tsikada Rocket 4.1 16:28:58 10° N 16:35:22 67° ENE 16:41:41 10° SSE
Cosmos 2084 Rocket 3.7 16:34:48 10° SW 16:38:58 68° NW 16:43:10 10° NE
SMAP 3.2 16:37:32 10° SE 16:42:01 50° ENE 16:46:32 10° N
Cosmos 44 Rocket 4.3 16:38:56 10° S 16:42:59 28° ESE 16:47:07 10° ENE
Cosmos 540 Rocket 3.7 16:39:23 10° NNW 16:44:20 45° ENE 16:49:15 10° SE
SJ 16-02 3.2 16:43:47 10° ESE 16:45:38 13° E 16:47:29 10° ENE
Cosmos 1869 3.9 16:44:22 10° SSE 16:47:25 28° E 16:50:27 10° NNE
YAOGAN 1 4.1 16:46:29 10° E 16:48:53 15° ENE 16:51:18 10° NNE
IGS 5A 3.3 16:45:08 10° SSE 16:49:06 85° ENE 16:53:06 10° NNW
Cosmos 1763 Rocket 3.5 16:47:39 10° NNW 16:52:51 62° ENE 16:57:56 10° SE
SL-16 R/B 2.7 16:46:50 10° NNE 16:53:09 84° WNW 16:59:23 10° SSW
Landsat 7 4.0 16:49:43 10° SE 16:54:11 48° ENE 16:58:40 10° N
SAR-Lupe-5 4.2 16:52:30 10° NNE 16:55:07 86° WNW 16:57:46 10° SSW
Timation 1 Rocket 4.3 16:52:29 10° NNW 16:58:27 67° ENE 17:04:23 10° SE
RESURS DK-1 2.2 16:54:31 10° NNW 16:58:31 63° ENE 17:02:28 10° SE
Cosmos 1140 Rocket 3.5 16:53:59 10° SSW 16:59:10 87° WNW 17:04:21 10° NNE
Aureole 3 Rocket 3.4 16:58:00 10° SE 17:00:28 23° E 17:03:07 10° NE
CZ-4C R/B 3.5 16:56:37 10° W 17:00:46 28° NNW 17:05:55 10° NE
UNK 3.7 17:01:29 10° NNE 17:06:06 75° ESE 17:10:42 10° S
Meteor 1-28 Rocket 3.6 17:02:53 10° N 17:06:14 57° WNW 17:09:31 10° SSW
Meteor 2-12 Rocket 4.4 17:03:16 10° N 17:09:23 69° ENE 17:15:24 10° SSE
Cosmos 1400 Rocket 4.1 17:07:15 10° SE 17:09:54 18° E 17:11:07 16° ENE
SJ-12 3.6 17:06:47 10° SSE 17:10:31 64° ENE 17:14:17 10° N
Cosmos 1536 Rocket 4.3 17:08:02 10° N 17:11:58 30° ENE 17:15:50 10° SE
SAR-Lupe-3 4.1 17:13:47 13° NNE 17:15:56 44° ESE 17:18:28 10° S
Helios 1A Rocket 4.3 17:16:48 14° ESE 17:16:48 14° ESE 17:18:04 10° SE
Okean 2 Rocket 4.1 17:13:48 10° SE 17:17:17 23° E 17:20:03 13° NE
CORIOLIS 4.4 17:14:49 10° S 17:20:09 73° WSW 17:25:31 10° NNW
IRS-1C 4.2 17:16:18 10° SSE 17:21:38 88° W 17:27:00 10° NNW
ATLAS CENTAUR R/B 3.5 17:23:47 10° NW 17:24:55 11° NNW 17:26:03 10° N
SL-12 R/B(2) 4.3 17:18:02 10° SSW 17:25:57 76° SE 17:35:42 10° NE
COSMO-SKYMED 1 3.5 17:26:49 21° ENE 17:28:01 24° E 17:31:23 10° SSE
Resurs 01 Rocket 3.5 17:30:11 14° NE 17:30:11 14° NE 17:31:21 10° NNE
Cosmos 1943 Rocket 2.1 17:24:01 10° SSW 17:29:37 77° ESE 17:35:13 10° NNE
Timation 2 Rocket 4.2 17:24:05 10° SSW 17:30:57 82° ESE 17:37:49 10° NNE
Cosmos 841 Rocket 3.9 17:28:35 10° NNW 17:33:33 40° ENE 17:38:28 10° SE
Cosmos 2251 Rocket 3.6 17:28:33 10° S 17:33:41 56° ESE 17:38:37 12° NNE
Cosmos 2058 2.7 17:30:06 10° N 17:34:03 63° ENE 17:37:59 10° SSE
BREEZE-M DEB (TANK) 2.2 17:34:33 10° WSW 17:37:03 72° SSE 17:39:49 24° E
Cosmos 2082 Rocket 2.1 17:33:06 10° NNW 17:38:46 79° ENE 17:44:23 10° SSE
ATLAS 2AS CENTAUR R/B 3.4 17:32:53 10° NW 17:39:00 34° NNE 17:42:14 23° ENE
Cosmos 1346 Rocket 4.4 17:37:26 10° NNE 17:38:39 17° NNE 17:38:39 17° NNE
Cosmos 2278 Rocket 2.2 17:37:27 10° SSW 17:43:07 90° ESE 17:48:33 11° NNE
IRAS Rocket 4.3 17:37:50 10° SE 17:43:14 56° ENE 17:48:38 10° N
Cosmos 1602 3.0 17:42:15 10° N 17:45:19 85° W 17:48:23 10° S
MOS 1 Rocket 3.1 17:41:02 10° SSE 17:45:22 89° ENE 17:49:56 10° NNW
Cosmos 468 Rocket 4.0 17:42:44 10° NNW 17:47:59 86° WSW 17:53:07 10° SSE
Cosmos 1464 Rocket 3.9 17:43:34 10° S 17:49:45 65° E 17:55:55 10° NNE
ARIANE 5 R/B 3.4 17:45:35 10° S 17:50:24 49° W 17:55:16 10° NNW
CZ-2D R/B 3.3 17:47:01 10° SSE 17:51:09 70° ENE 17:55:21 10° N
Cosmos 2369 Rocket 4.1 17:49:26 10° SE 17:50:08 12° SE 17:50:08 12° SE
USA 215 3.9 17:48:33 10° SE 17:54:56 55° SW 18:01:21 10° WNW
Cosmos 1862 2.9 17:52:50 10° N 17:56:29 82° E 18:00:07 10° S
PSLV R/B 3.3 17:53:00 10° SSE 17:56:57 57° ENE 18:00:55 10° N
Geosat FO 4.2 17:57:42 28° SSE 17:59:03 68° WSW 18:01:55 10° NW
Cosmos 2151 Rocket 3.5 17:55:52 10° S 18:00:20 78° E 18:04:52 10° NNE
Cosmos 1190 Rocket 3.9 17:56:11 10° SSW 18:01:28 80° ESE 18:05:26 18° NNE
ISS -3.8 18:00:19 10° W 18:03:39 67° NNW 18:03:52 64° NNE
Cosmos 2034 Rocket 4.0 17:57:42 10° SSE 18:03:43 56° E 18:09:50 10° NNE
Cosmos 676 Rocket 4.1 17:59:27 10° S 18:04:36 54° ESE 18:06:42 33° NE
Cosmos 1812 3.3 18:01:52 10° SSW 18:04:37 39° WNW 18:06:21 19° NNW
Okean 1 Rocket 3.0 18:02:42 10° S 18:07:01 59° E 18:08:25 39° NE
Cosmos 1656 Rocket 4.0 18:02:07 10° S 18:07:15 41° ESE 18:07:59 39° E
SKYMED 2 3.4 18:03:51 13° NNE 18:07:43 86° ESE 18:12:03 10° SSW
Sich 1 Rocket 3.5 18:08:16 10° S 18:12:46 70° E 18:14:56 30° NNE
USA 281 3.7 18:11:29 35° ENE 18:12:49 38° NE 18:18:47 10° NNW
Cosmos 1954 Rocket 3.9 18:08:37 10° SSW 18:13:53 83° ESE 18:16:53 26° NNE
COSMOS 2406 3.1 18:08:44 10° NNW 18:14:27 82° ENE 18:19:01 16° SSE
Cosmos 1092 Rocket 4.0 18:10:23 10° N 18:16:31 54° ENE 18:22:33 10° SSE
BlueWalker 3 3.9 18:14:23 10° S 18:15:40 17° S 18:15:40 17° S
SL-19 R/B 4.0 18:13:14 10° SSE 18:18:27 88° WSW 18:23:44 10° NNW
Cosmos 2026 Rocket 3.8 18:15:30 10° N 18:21:34 66° ENE 18:27:40 10° SSE
SJ 16-02 1.4 18:18:49 10° SSW 18:23:08 75° WNW 18:24:29 43° N
Cosmos 44 Rocket 3.9 18:19:26 10° WSW 18:24:08 52° NW 18:26:13 31° NNE
YAOGAN 1 2.7 18:19:58 10° S 18:24:13 72° WSW 18:28:29 10° NNW
SPOT 1/Viking Rocket 4.1 18:20:54 10° S 18:25:58 58° W 18:31:07 10° NNW
Cosmos 2344 3.8 18:24:29 10° NW 18:32:22 78° NE 18:38:34 27° SE
Cosmos 2297 Rocket 4.5 18:32:58 10° N 18:33:09 10° NNE 18:33:09 10° NNE
Meteor 2-3 Rocket 3.6 18:31:45 10° NNW 18:37:30 87° W 18:43:07 10° S
Resurs 1-3 4.2 18:34:33 10° S 18:38:45 55° W 18:43:01 10° NNW
Cosmos 1400 Rocket 4.0 18:41:31 10° SW 18:45:06 38° WNW 18:45:47 34° NW
Cosmos 304 Rocket 4.1 18:43:19 10° SW 18:47:59 60° WNW 18:48:47 52° NNW
Cosmos 371 Rocket 3.7 18:45:05 10° SW 18:49:50 61° WNW 18:50:35 53° NNW
CZ-4C R/B 4.1 18:46:52 10° NW 18:51:03 20° N 18:51:50 20° NNE
Cosmos 1627 Rocket 4.5 18:48:10 10° NNW 18:54:18 78° W 19:00:28 10° S
Okean 2 Rocket 4.4 18:50:55 10° SW 18:55:01 38° WNW 18:57:20 22° NNW
COSMO-SKYMED 1 3.9 19:03:10 35° WNW 19:03:25 36° WNW 19:07:11 10° SW
Resurs 01 Rocket 3.7 19:07:36 19° NNW 19:07:36 19° NNW 19:08:55 10° NNW
Geosat 4.3 19:05:27 62° WSW 19:05:27 62° WSW 19:10:22 10° NW
BREEZE-M DEB (TANK) 3.9 19:08:35 10° W 19:11:47 75° WNW 19:11:47 75° WNW
Cosmos 1943 Rocket 4.1 19:09:29 10° W 19:13:57 24° NW 19:16:48 17° N
Cosmos 2278 Rocket 4.3 19:23:42 10° W 19:27:59 21° NW 19:30:23 17° N
ATLAS 2AS CENTAUR R/B 2.8 19:23:50 10° NW 19:29:41 68° NW 19:29:41 68° NW
Cosmos 1634 Rocket 4.5 19:29:18 10° SSW 19:42:28 - N 19:34:50 56° WSW
Cosmos 2369 Rocket 4.2 19:30:33 10° SSW 19:31:59 19° SSW 19:31:59 19° SSW
USA 281 3.9 19:58:22 49° WNW 19:58:22 49° WNW 20:03:35 10° NNW
SJ 16-02 4.5 20:00:28 10° WNW 20:01:04 11° WNW 20:01:04 11° WNW
